EUTELSAT 5 WEST B

Last updated on Thu Oct 30 2025 00:02:51 GMT+0000 (Coordinated Universal Time)

1 44624U 19067A 25302.32738361 -.00000032 00000+0 00000+0 0 9992 2 44624 0.0680 7.3808 0003150 209.9317 293.4924 1.00271108 22122
UTC large
Height (km)
Speed (km/s)
/
Latitude / Longitude
Inclination (degrees)
Orbital Period (minutes)
Azimuth
Elevation
Range (km)
Doppler Factor

Next 0 passes for location: London (51.5072 / 0.1276)

Sorry there are no passes over London.